1517270401.18,18078,10.0,73108.8,-5.45,-28.47,-28.09,0,*58
1517270402.47,18079,10.0,73196.3,-5.49,-28.75,-28.21,0,*5E
1517270403.73,18080,10.0,73192.3,-5.45,-28.69,-28.21,0,*59
1517270404.99,18081,10.0,73170.5,-5.43,-28.91,-28.43,0,*5D
1517270406.26,18082,10.0,73146.8,-5.45,-28.85,-28.47,0,*59
1517270407.5,18083,10.0,73116.8,-5.45,-28.85,-28.37,0,*5F
1517270408.76,18084,10.0,73132.0,-5.45,-28.79,-28.15,0,*5B
1517270410.05,18085,10.0,73146.0,-5.45,-28.63,-28.09,0,*5C
1517270411.28,18086,10.0,73186.5,-5.43,-28.97,-28.47,0,*58
1517270412.57,18087,10.0,73196.3,-5.45,-28.63,-28.09,0,*5E
1517270413.8,18088,10.0,73162.5,-5.43,-28.47,-27.93,0,*5D
1517270415.03,18089,10.0,73168.0,-5.43,-28.63,-27.93,0,*5A
1517270416.26,18090,10.0,73180.3,-5.43,-28.43,-27.89,0,*5B
1517270417.5,18091,10.0,73158.5,-5.43,-28.43,-27.89,0,*5A
1517270418.76,18092,10.0,73180.5,-5.41,-28.79,-28.15,0,*58
1517270420.02,18093,10.0,73196.0,-5.41,-28.63,-27.93,0,*53
1517270421.31,18094,10.0,73190.0,-5.41,-28.75,-28.09,0,*5F
1517270422.52,18095,10.0,73164.5,-5.39,-28.37,-27.89,0,*50
1517270423.78,18096,10.0,73176.0,-5.41,-28.43,-27.77,0,*5E
1517270425.04,18097,10.0,73188.0,-5.41,-28.25,-27.71,0,*59
1517270426.27,18098,10.0,73178.8,-5.41,-28.31,-27.71,0,*53
1517270427.53,18099,10.0,73148.5,-5.41,-28.47,-27.93,0,*5F
1517270428.79,18100,10.0,73146.8,-5.39,-28.59,-28.05,0,*5E
1517270430.02,18101,10.0,73134.3,-5.39,-28.69,-28.05,0,*5C
1517270431.28,18102,10.0,73130.8,-5.39,-28.43,-27.83,0,*56
1517270432.51,18103,10.0,73118.3,-5.39,-28.43,-27.89,0,*5D
1517270433.75,18104,10.0,73154.5,-5.39,-28.85,-28.25,0,*59
1517270434.98,18105,10.0,73176.0,-5.39,-28.37,-27.83,0,*52
1517270436.18,18106,10.0,73148.0,-5.35,-28.31,-27.77,0,*50
1517270437.39,18107,10.0,73150.3,-5.35,-28.15,-27.67,0,*56
1517270438.62,18108,10.0,73144.3,-5.35,-28.53,-27.99,0,*5A
1517270439.83,18109,10.0,73172.8,-5.35,-28.37,-27.77,0,*59
1517270441.03,18110,10.0,73176.5,-5.35,-28.31,-27.77,0,*57
1517270442.29,18111,10.0,73130.8,-5.33,-28.15,-27.61,0,*51
1517270443.52,18112,10.0,73058.5,-5.33,-28.31,-27.67,0,*52
1517270444.77,18113,10.0,73076.5,-5.33,-28.15,-27.61,0,*53
1517270446.01,18114,10.0,73090.8,-5.31,-28.15,-27.55,0,*51
1517270447.27,18115,10.0,73106.0,-5.31,-28.43,-27.77,0,*53
1517270448.53,18116,10.0,73124.8,-5.31,-28.59,-27.93,0,*51
1517270449.79,18117,10.0,73122.0,-5.31,-28.75,-28.15,0,*5F
1517270451.09,18118,10.0,73114.3,-5.31,-28.91,-28.25,0,*59
1517270452.35,18119,10.0,73126.8,-5.31,-28.47,-27.93,0,*51
1517270453.62,18120,10.0,73138.5,-5.29,-28.79,-28.25,0,*5D
1517270454.91,18121,10.0,73162.5,-5.31,-28.79,-28.25,0,*55
1517270456.2,18122,10.0,73162.8,-5.31,-28.91,-28.47,0,*54
1517270457.46,18123,10.0,73166.5,-5.31,-29.07,-28.59,0,*54
1517270458.69,18124,10.0,73178.5,-5.35,-29.23,-28.79,0,*53
1517270459.92,18125,10.0,73176.5,-5.35,-29.23,-28.79,0,*52
1517270461.17,18126,10.0,73170.5,-5.33,-29.13,-28.53,0,*5C
1517270462.43,18127,10.0,73178.3,-5.33,-28.79,-28.31,0,*54
1517270463.67,18128,10.0,73166.8,-5.35,-28.69,-28.21,0,*5D
1517270464.9,18129,10.0,73200.3,-5.35,-28.69,-28.21,0,*5C
1517270466.13,18130,10.0,73202.5,-5.35,-29.01,-28.37,0,*5C
1517270467.36,18131,10.0,73202.8,-5.33,-29.23,-28.69,0,*50
1517270468.62,18132,10.0,73206.8,-5.33,-29.17,-28.69,0,*54
1517270469.88,18133,10.0,73212.8,-5.35,-29.17,-28.63,0,*59
1517270471.11,18134,10.0,73178.8,-5.35,-28.53,-27.83,0,*5E
1517270472.34,18135,10.0,73180.8,-5.35,-28.37,-27.83,0,*5D
1517270473.57,18136,10.0,73186.5,-5.35,-28.63,-27.93,0,*5E
1517270474.82,18137,10.0,73192.3,-5.35,-28.47,-27.83,0,*58
1517270476.05,18138,10.0,73184.3,-5.33,-28.69,-27.93,0,*5C
1517270477.29,18139,10.0,73166.5,-5.35,-28.53,-27.83,0,*53
1517270478.5,18140,10.0,73182.5,-5.35,-28.85,-28.31,0,*50
1517270479.71,18141,10.0,73186.8,-5.35,-28.97,-28.31,0,*52
1517270480.99,18142,10.0,73200.8,-5.33,-29.13,-28.63,0,*5D
1517270482.25,18143,10.0,73224.8,-5.35,-29.13,-28.63,0,*5A
1517270483.5,18144,10.0,73168.8,-5.33,-28.47,-27.93,0,*5B
1517270484.73,18145,10.0,73118.3,-5.35,-28.37,-27.83,0,*5A
1517270485.96,18146,10.0,73054.5,-5.33,-28.37,-27.77,0,*54
1517270487.17,18147,10.0,73032.5,-5.35,-28.37,-27.77,0,*53
1517270488.4,18148,10.0,72956.0,-5.35,-27.93,-27.35,0,*5B
1517270489.66,18149,10.0,73014.3,-5.33,-27.77,-27.19,0,*58
1517270490.88,18150,10.0,73038.3,-5.33,-28.31,-27.77,0,*55
1517270492.11,18151,10.0,73082.8,-5.35,-28.79,-28.37,0,*55
1517270493.38,18152,10.0,73080.8,-5.33,-28.53,-27.99,0,*53
1517270494.63,18153,10.0,73088.5,-5.33,-28.31,-27.83,0,*5D
1517270495.91,18154,10.0,73098.0,-5.31,-28.47,-28.25,0,*5A
1517270497.15,18155,9.94,73104.8,-5.33,-28.85,-28.53,0,*56
1517270498.38,18156,10.0,73136.5,-5.33,-28.85,-28.53,0,*55
1517270499.64,18157,10.0,73140.5,-5.33,-28.97,-28.63,0,*54
1517270500.89,18158,10.0,73138.3,-5.35,-28.79,-28.47,0,*5B
1517270502.1,18159,10.0,73180.5,-5.35,-28.85,-28.53,0,*5C
1517270503.36,18160,10.0,73192.0,-5.33,-28.79,-28.37,0,*51
1517270504.59,18161,10.0,73172.0,-5.33,-28.37,-27.93,0,*5B
1517270505.83,18162,10.0,73156.3,-5.35,-28.53,-28.05,0,*5C
1517270507.11,18163,10.0,73194.5,-5.33,-28.63,-28.21,0,*5E
1517270508.37,18164,10.0,73202.5,-5.33,-28.97,-28.63,0,*54
1517270509.63,18165,10.0,73218.0,-5.35,-29.01,-28.63,0,*5D
1517270510.9,18166,10.0,73190.5,-5.33,-28.53,-28.21,0,*58
1517270512.15,18167,10.0,73118.8,-5.35,-28.47,-27.99,0,*56
1517270513.4,18168,10.0,73100.3,-5.33,-28.31,-27.83,0,*55
1517270514.68,18169,10.0,73104.0,-5.33,-28.21,-27.83,0,*55
1517270515.96,18170,10.0,73126.3,-5.33,-28.47,-27.99,0,*56
1517270517.22,18171,10.0,73142.5,-5.33,-28.53,-28.05,0,*58
1517270518.48,18172,10.0,73124.0,-5.33,-28.69,-28.21,0,*54
1517270519.71,18173,10.0,73124.3,-5.33,-28.53,-27.93,0,*5A
1517270520.98,18174,10.0,73138.3,-5.31,-28.15,-27.61,0,*50
1517270522.21,18175,10.0,73096.0,-5.31,-28.15,-27.71,0,*50
1517270523.47,18176,10.0,73128.0,-5.31,-27.93,-27.45,0,*55
1517270524.76,18177,10.0,73162.0,-5.31,-28.09,-27.61,0,*5E
1517270526.0,18178,10.0,73130.8,-5.31,-28.15,-27.71,0,*5D
1517270527.26,18179,10.0,73110.5,-5.31,-28.25,-27.77,0,*59
1517270528.53,18180,10.0,73014.0,-5.31,-28.25,-27.89,0,*5E
1517270529.79,18181,10.0,73048.0,-5.31,-27.93,-27.61,0,*5B
1517270531.01,18182,10.0,73074.8,-5.29,-27.71,-27.29,0,*51
1517270532.25,18183,10.0,73136.3,-5.29,-27.29,-26.93,0,*5D
1517270533.49,18184,9.94,73124.0,-5.29,-27.39,-27.07,0,*57
1517270534.7,18185,10.0,73050.5,-5.29,-27.55,-27.13,0,*59
1517270535.94,18186,10.0,73054.8,-5.29,-27.89,-27.45,0,*58
1517270537.17,18187,10.0,73088.0,-5.27,-27.93,-27.51,0,*59
1517270538.4,18188,9.94,73088.5,-5.25,-27.83,-27.55,0,*51
1517270539.66,18189,9.94,73056.8,-5.25,-27.83,-27.39,0,*5A
1517270540.9,18190,10.0,73066.5,-5.25,-28.05,-27.67,0,*58
1517270542.16,18191,10.0,73092.5,-5.21,-27.99,-27.61,0,*51
1517270543.4,18192,10.0,73100.8,-5.21,-27.89,-27.61,0,*53
1517270544.66,18193,10.0,73112.0,-5.21,-28.05,-27.83,0,*55
1517270545.9,18194,10.0,73104.0,-5.21,-28.21,-27.89,0,*5E
1517270547.12,18195,10.0,73130.0,-5.25,-28.53,-28.37,0,*54
1517270548.36,18196,10.0,73132.0,-5.25,-28.85,-28.59,0,*54
1517270549.63,18197,10.0,73144.5,-5.27,-28.91,-28.85,0,*53
1517270550.89,18198,9.94,73140.5,-5.27,-29.07,-28.91,0,*57
1517270552.14,18199,10.0,73148.5,-5.27,-29.13,-29.07,0,*5D
1517270553.37,18200,10.0,73150.3,-5.27,-29.23,-29.07,0,*5D
1517270554.63,18201,10.0,73142.0,-5.27,-29.07,-28.91,0,*54
1517270555.87,18202,10.0,73138.5,-5.27,-28.85,-28.69,0,*5B
1517270557.1,18203,9.94,73140.8,-5.27,-28.85,-28.69,0,*5A
1517270558.38,18204,9.94,73144.0,-5.27,-28.75,-28.75,0,*5F
1517270559.62,18205,10.0,73154.0,-5.29,-29.07,-28.91,0,*5E
1517270560.88,18206,10.0,73150.8,-5.31,-28.97,-28.79,0,*5A
1517270562.14,18207,10.0,73172.5,-5.31,-29.07,-28.91,0,*55
1517270563.43,18208,10.0,73176.3,-5.31,-28.91,-28.75,0,*5E
1517270564.72,18209,10.0,73158.5,-5.31,-28.75,-28.63,0,*52
1517270565.97,18210,9.94,73144.5,-5.33,-28.63,-28.69,0,*55
1517270567.21,18211,9.94,73138.3,-5.33,-28.37,-28.31,0,*58
1517270568.48,18212,9.94,73146.5,-5.33,-28.47,-28.47,0,*5D
1517270569.74,18213,10.0,73152.8,-5.33,-28.63,-28.53,0,*5F
1517270570.97,18214,10.0,73140.3,-5.33,-28.15,-27.93,0,*5A
1517270572.19,18215,9.94,73132.3,-5.33,-27.93,-27.77,0,*50
1517270573.43,18216,9.94,73122.8,-5.29,-27.55,-27.45,0,*53
1517270574.72,18217,10.0,73114.5,-5.31,-27.61,-27.45,0,*5C
1517270575.96,18218,10.0,73090.5,-5.29,-27.39,-27.29,0,*5D
1517270577.2,18219,9.94,73122.3,-5.29,-27.13,-26.97,0,*50
1517270578.47,18220,10.0,73142.8,-5.29,-27.23,-26.97,0,*59
1517270579.73,18221,9.94,73140.0,-5.27,-27.51,-27.23,0,*5D
1517270580.96,18222,10.0,73098.0,-5.27,-27.67,-27.51,0,*5E
1517270582.2,18223,9.94,73134.0,-5.27,-27.67,-27.51,0,*5F
1517270583.44,18224,9.94,73140.5,-5.27,-27.71,-27.67,0,*5A
1517270584.67,18225,9.94,73146.8,-5.25,-27.93,-27.83,0,*5F
1517270585.93,18226,9.94,73138.5,-5.25,-28.05,-27.83,0,*5C
1517270587.17,18227,9.94,73126.0,-5.27,-27.93,-27.71,0,*52
1517270588.4,18228,9.94,73106.5,-5.27,-27.93,-27.71,0,*5D
1517270589.67,18229,10.0,73098.8,-5.25,-28.05,-27.83,0,*53
1517270590.91,18230,9.94,73118.0,-5.25,-28.05,-27.89,0,*51
1517270592.17,18231,9.94,73170.5,-5.25,-28.09,-28.21,0,*51
1517270593.44,18232,9.94,73152.3,-5.25,-28.21,-28.21,0,*58
1517270594.71,18233,9.94,73144.0,-5.25,-28.25,-28.21,0,*5D
1517270595.92,18234,10.0,73152.8,-5.21,-28.15,-28.15,0,*5A
1517270597.14,18235,9.94,73142.0,-5.25,-28.37,-28.53,0,*5D
1517270598.38,18236,9.94,73132.0,-5.25,-28.05,-27.93,0,*5C
1517270599.64,18237,9.94,73142.5,-5.25,-28.21,-28.25,0,*59
1517270600.9,18238,9.94,73170.8,-5.25,-28.59,-28.75,0,*5C
1517270602.16,18239,9.94,73168.8,-5.27,-28.21,-28.37,0,*56
1517270603.43,18240,9.94,73170.8,-5.25,-28.09,-28.21,0,*57
1517270604.69,18241,9.94,73160.5,-5.25,-28.05,-28.09,0,*50
1517270605.96,18242,9.94,73146.0,-5.25,-28.25,-28.43,0,*5F
1517270607.19,18243,10.0,73132.0,-5.25,-28.69,-28.75,0,*53
1517270608.45,18244,9.94,73150.0,-5.25,-28.91,-29.01,0,*51
1517270609.71,18245,9.94,73144.3,-5.27,-28.75,-28.85,0,*55
1517270610.97,18246,10.0,73148.8,-5.27,-28.85,-28.91,0,*5C
1517270612.24,18247,9.94,73154.8,-5.27,-28.75,-28.85,0,*57
1517270613.47,18248,9.94,73172.3,-5.29,-28.97,-29.13,0,*54
1517270614.71,18249,9.94,73156.5,-5.29,-28.91,-28.97,0,*5E
1517270615.97,18250,9.94,73146.0,-5.29,-28.79,-28.91,0,*56
1517270617.24,18251,10.0,73170.8,-5.29,-28.63,-28.91,0,*5C
1517270618.5,18252,9.94,73144.0,-5.27,-28.37,-28.59,0,*54
1517270619.76,18253,9.94,73158.3,-5.29,-28.63,-28.79,0,*58
1517270621.02,18254,10.0,73158.0,-5.29,-28.91,-29.13,0,*5F
1517270622.23,18255,9.94,73150.3,-5.29,-28.97,-29.07,0,*5D
1517270623.51,18256,10.0,73162.8,-5.31,-29.13,-29.29,0,*56
1517270624.8,18257,9.94,73160.3,-5.31,-29.17,-29.35,0,*5E
1517270626.06,18258,9.94,73152.5,-5.31,-28.97,-29.17,0,*58
1517270627.32,18259,10.0,73148.8,-5.35,-29.13,-29.35,0,*50
1517270628.6,18260,9.94,73150.5,-5.33,-29.17,-29.35,0,*58
1517270629.85,18261,9.94,73158.3,-5.33,-28.97,-29.17,0,*50
1517270631.1,18262,9.94,73162.8,-5.33,-28.69,-29.01,0,*55
1517270632.33,18263,9.94,73148.5,-5.35,-28.69,-29.01,0,*52
1517270633.56,18264,9.94,73152.0,-5.35,-28.85,-29.17,0,*50
1517270634.82,18265,10.0,73140.8,-5.35,-29.01,-29.35,0,*5C
1517270636.08,18266,10.0,73134.5,-5.35,-29.01,-29.35,0,*5F
1517270637.34,18267,10.0,73156.3,-5.35,-29.17,-29.35,0,*59
1517270638.6,18268,9.94,73160.5,-5.39,-28.91,-29.17,0,*55
1517270639.83,18269,9.94,73150.0,-5.39,-28.91,-29.23,0,*53
1517270641.09,18270,9.94,73162.0,-5.41,-29.13,-29.45,0,*5F
1517270642.32,18271,9.94,73162.0,-5.39,-28.91,-29.23,0,*5A
1517270643.58,18272,9.94,73180.8,-5.41,-28.79,-29.07,0,*56
1517270644.78,18273,9.94,73180.0,-5.39,-28.85,-29.07,0,*5B
1517270646.06,18274,9.94,73176.5,-5.41,-28.79,-29.13,0,*55
1517270647.32,18275,9.94,73170.0,-5.41,-28.91,-29.23,0,*51
1517270648.55,18276,9.94,73166.5,-5.41,-28.97,-29.23,0,*54
1517270649.78,18277,9.94,73160.8,-5.39,-28.85,-29.17,0,*5E
1517270651.07,18278,9.94,73172.8,-5.41,-29.13,-29.35,0,*50
1517270652.33,18279,9.94,73158.0,-5.41,-29.07,-29.35,0,*54
1517270653.62,18280,9.94,73164.5,-5.41,-29.13,-29.51,0,*55
1517270654.88,18281,9.94,73154.5,-5.41,-29.13,-29.45,0,*51
1517270656.16,18282,9.94,73142.0,-5.41,-28.63,-29.13,0,*57
1517270657.42,18283,9.94,73144.5,-5.41,-29.13,-29.45,0,*53
1517270658.64,18284,9.94,73154.5,-5.43,-28.97,-29.29,0,*51
1517270659.9,18285,9.94,73174.0,-5.45,-28.97,-29.29,0,*56
1517270661.18,18286,9.94,73164.3,-5.45,-28.91,-29.29,0,*53
1517270662.41,18287,9.94,73186.0,-5.43,-28.91,-29.23,0,*5E
1517270663.62,18288,9.94,73184.8,-5.43,-28.97,-29.45,0,*57
1517270664.85,18289,9.94,73184.8,-5.43,-28.97,-29.39,0,*5D
1517270666.15,18290,9.94,73188.3,-5.45,-29.01,-29.51,0,*53
1517270667.41,18291,9.94,73194.3,-5.45,-29.01,-29.57,0,*54
1517270668.7,18292,9.94,73196.5,-5.45,-29.17,-29.51,0,*56
1517270669.96,18293,9.94,73200.0,-5.45,-29.13,-29.57,0,*55
1517270671.22,18294,9.94,73178.5,-5.45,-28.69,-29.13,0,*5E
1517270672.48,18295,9.94,73170.0,-5.45,-29.17,-29.67,0,*54
1517270673.77,18296,9.94,73174.8,-5.45,-29.13,-29.51,0,*56
1517270675.03,18297,9.94,73182.5,-5.45,-29.17,-29.57,0,*55
1517270676.29,18298,9.94,73198.8,-5.49,-29.17,-29.57,0,*56
1517270677.58,18299,9.94,73194.8,-5.45,-29.01,-29.39,0,*54
1517270678.86,18300,9.94,73200.0,-5.45,-28.79,-29.17,0,*57
1517270680.1,18301,9.94,73192.8,-5.45,-28.53,-28.97,0,*57
1517270681.36,18302,9.94,73186.8,-5.45,-27.99,-28.15,0,*57
1517270682.65,18303,9.94,73144.3,-5.45,-26.93,-27.19,0,*5E
1517270683.89,18304,9.94,73132.3,-5.45,-27.77,-28.15,0,*51
1517270685.15,18305,9.94,73112.0,-5.45,-27.77,-28.09,0,*5D
1517270686.39,18306,9.94,73114.0,-5.43,-27.61,-27.89,0,*58
1517270687.64,18307,9.94,73076.0,-5.45,-27.77,-28.15,0,*52
1517270688.88,18308,9.94,73076.0,-5.43,-28.05,-28.31,0,*57
1517270690.17,18309,9.94,73084.8,-5.41,-28.25,-28.63,0,*51
1517270691.43,18310,9.94,73082.8,-5.41,-28.31,-28.79,0,*57
1517270692.66,18311,9.94,73112.0,-5.39,-28.05,-28.53,0,*56
1517270693.92,18312,9.94,73104.0,-5.39,-28.09,-28.59,0,*53
1517270695.17,18313,9.94,73092.8,-5.39,-28.25,-28.75,0,*52
1517270696.42,18314,9.94,73110.0,-5.39,-27.99,-28.43,0,*58
1517270697.68,18315,9.94,73140.8,-5.39,-27.99,-28.43,0,*59
1517270698.93,18316,9.94,73112.0,-5.39,-28.25,-28.75,0,*57
1517270700.21,18317,9.94,73118.0,-5.41,-28.25,-28.79,0,*55
1517270701.45,18318,10.0,73100.5,-5.39,-28.09,-28.69,0,*5A
1517270702.68,18319,9.94,73118.0,-5.39,-28.09,-28.53,0,*52
1517270703.91,18320,9.94,73102.5,-5.39,-28.09,-28.69,0,*51
1517270705.16,18321,9.94,73122.5,-5.39,-28.21,-28.75,0,*57
1517270706.45,18322,9.94,73118.5,-5.41,-28.25,-28.79,0,*53
1517270707.7,18323,9.94,73106.3,-5.39,-28.25,-28.75,0,*51
1517270708.95,18324,9.94,73136.8,-5.41,-28.47,-28.97,0,*51
1517270710.2,18325,9.94,73140.0,-5.39,-28.43,-28.91,0,*5D
1517270711.44,18326,9.94,73142.8,-5.35,-28.53,-29.17,0,*5C
1517270712.66,18327,9.94,73148.5,-5.39,-28.69,-29.29,0,*55
1517270713.88,18328,9.94,73158.5,-5.39,-28.59,-29.23,0,*53
1517270715.16,18329,9.94,73160.8,-5.41,-28.59,-29.13,0,*5E
1517270716.44,18330,9.94,73166.0,-5.41,-28.63,-29.13,0,*5F
1517270717.65,18331,9.94,73164.5,-5.39,-28.85,-29.57,0,*59
1517270718.92,18332,9.94,73174.8,-5.41,-28.97,-29.51,0,*50
1517270720.18,18333,9.94,73178.8,-5.41,-28.79,-29.45,0,*54
1517270721.46,18334,9.94,73178.5,-5.41,-28.75,-29.29,0,*55
1517270722.72,18335,9.94,73182.3,-5.41,-28.75,-29.45,0,*5E
1517270723.98,18336,9.94,73178.0,-5.41,-28.75,-29.45,0,*5D
1517270725.27,18337,9.94,73186.5,-5.41,-28.91,-29.35,0,*51
1517270726.56,18338,9.94,73190.3,-5.41,-28.79,-29.35,0,*58
1517270727.82,18339,9.94,73188.5,-5.43,-28.79,-29.35,0,*5B
1517270729.06,18340,9.94,73184.3,-5.43,-28.79,-29.45,0,*52
1517270730.3,18341,9.94,73180.8,-5.43,-28.97,-29.51,0,*56
1517270731.5,18342,9.94,73178.3,-5.43,-28.97,-29.61,0,*56
1517270732.79,18343,9.94,73182.3,-5.45,-29.17,-29.73,0,*5B
1517270734.0,18344,9.94,73180.3,-5.43,-29.23,-29.83,0,*52
1517270735.3,18345,9.94,73184.0,-5.45,-29.35,-30.01,0,*50
1517270736.59,18346,9.94,73184.5,-5.45,-29.39,-30.01,0,*5F
1517270737.86,18347,9.94,73186.5,-5.45,-29.17,-29.83,0,*50
1517270739.12,18348,9.94,73190.5,-5.45,-29.17,-29.83,0,*5F
1517270740.41,18349,9.94,73194.0,-5.49,-29.35,-30.05,0,*54
1517270741.7,18350,9.94,73196.0,-5.45,-29.29,-30.01,0,*59
1517270742.99,18351,9.94,73198.5,-5.49,-29.39,-30.05,0,*51
1517270744.27,18352,9.94,73202.0,-5.45,-29.29,-30.01,0,*5B
1517270745.51,18353,9.94,73202.5,-5.49,-29.23,-29.95,0,*59
1517270746.77,18354,9.94,73200.0,-5.49,-29.01,-29.61,0,*55
1517270748.03,18355,9.94,73200.3,-5.51,-29.01,-29.73,0,*5E
1517270749.24,18356,9.94,73196.5,-5.51,-28.85,-29.61,0,*53
1517270750.5,18357,9.94,73192.8,-5.51,-28.59,-29.35,0,*52
1517270751.71,18358,9.94,73180.8,-5.51,-28.85,-29.61,0,*5D
1517270752.94,18359,9.94,73176.5,-5.49,-29.07,-29.79,0,*57
1517270754.2,18360,9.94,73188.0,-5.51,-29.29,-29.89,0,*57
1517270755.47,18361,9.94,73200.5,-5.51,-29.39,-29.89,0,*57
1517270756.68,18362,9.94,73192.8,-5.51,-28.97,-29.61,0,*57
1517270757.94,18363,9.94,73146.3,-5.53,-28.59,-29.23,0,*50
1517270759.23,18364,9.94,73170.5,-5.53,-28.25,-28.91,0,*54
1517270760.48,18365,9.94,73168.5,-5.51,-28.43,-28.91,0,*57
1517270761.74,18366,9.94,73182.0,-5.51,-28.43,-29.01,0,*5C
1517270762.99,18367,9.94,73186.5,-5.49,-28.69,-29.39,0,*57
1517270764.27,18368,9.94,73172.5,-5.49,-28.59,-29.17,0,*57
1517270765.5,18369,9.94,73126.5,-5.49,-28.69,-29.23,0,*52
1517270766.75,18370,9.94,73086.5,-5.49,-28.59,-29.23,0,*59
1517270768.01,18371,9.94,73102.0,-5.49,-29.01,-29.61,0,*52
1517270769.29,18372,9.94,73116.5,-5.49,-28.75,-29.39,0,*5E
1517270770.54,18373,9.94,73158.8,-5.49,-28.59,-29.23,0,*5A
1517270771.78,18374,9.94,73144.3,-5.49,-28.85,-29.45,0,*5C
1517270773.04,18375,9.94,73120.8,-5.49,-29.01,-29.45,0,*50
1517270774.28,18376,9.94,73118.0,-5.49,-29.07,-29.61,0,*53
1517270775.51,18377,9.94,73122.8,-5.51,-29.01,-29.45,0,*5B
1517270776.76,18378,9.94,73130.5,-5.53,-28.47,-29.07,0,*53
1517270778.02,18379,9.94,73140.5,-5.51,-28.43,-29.01,0,*52
1517270779.25,18380,9.94,73148.5,-5.45,-28.97,-29.57,0,*5B
1517270780.51,18381,9.94,73150.8,-5.49,-29.17,-29.79,0,*53
1517270781.75,18382,9.94,73164.3,-5.51,-29.01,-29.57,0,*52
1517270783.01,18383,9.94,73174.3,-5.51,-29.01,-29.39,0,*5B
1517270784.24,18384,9.94,73178.8,-5.51,-29.23,-29.73,0,*52
1517270785.5,18385,9.94,73176.8,-5.53,-29.29,-29.83,0,*54
1517270786.73,18386,9.94,73178.3,-5.49,-28.69,-29.07,0,*55
1517270787.96,18387,9.94,73180.8,-5.51,-28.37,-28.75,0,*52
1517270789.2,18388,9.94,73186.5,-5.49,-28.37,-28.85,0,*5B
1517270790.43,18389,9.94,73192.0,-5.51,-28.43,-28.85,0,*50
1517270791.69,18390,9.94,73200.5,-5.49,-28.59,-28.97,0,*59
1517270792.92,18391,9.94,73188.3,-5.49,-28.37,-28.69,0,*51
1517270794.2,18392,9.94,73196.3,-5.49,-28.75,-29.17,0,*5C
1517270795.46,18393,9.94,73222.3,-5.49,-29.23,-29.73,0,*5D
1517270796.75,18394,9.94,73226.5,-5.45,-29.17,-29.51,0,*51
1517270798.0,18395,9.94,73224.3,-5.49,-29.23,-29.73,0,*5B
1517270799.29,18396,9.94,73230.0,-5.45,-29.13,-29.51,0,*57
1517270800.55,18397,9.94,73224.5,-5.45,-28.85,-29.29,0,*57
1517270801.81,18398,9.94,73216.8,-5.49,-28.91,-29.23,0,*5B
1517270803.05,18399,9.94,73208.5,-5.49,-28.53,-28.85,0,*59
1517270804.33,18400,9.94,73232.5,-5.49,-29.17,-29.39,0,*59
1517270805.61,18401,9.94,73228.5,-5.49,-29.17,-29.39,0,*58
1517270806.84,18402,9.94,73184.8,-5.49,-28.37,-28.69,0,*5C
1517270808.13,18403,9.94,73128.8,-5.49,-28.21,-28.25,0,*52
1517270809.41,18404,9.94,73122.5,-5.49,-27.83,-27.99,0,*5A
1517270810.69,18405,9.94,73116.5,-5.49,-27.83,-27.99,0,*5B
1517270811.96,18406,9.94,73146.5,-5.45,-27.93,-27.99,0,*55
1517270813.24,18407,9.94,73114.3,-5.45,-27.99,-28.09,0,*58
1517270814.5,18408,9.94,73112.8,-5.45,-28.31,-28.47,0,*50
1517270815.74,18409,9.94,73084.3,-5.43,-28.25,-28.15,0,*55
1517270817.0,18410,9.94,73064.0,-5.43,-28.25,-28.43,0,*5E
1517270818.22,18411,9.94,73064.8,-5.43,-28.15,-28.31,0,*59
1517270819.48,18412,9.94,73090.5,-5.43,-28.43,-28.63,0,*5E
1517270820.73,18413,9.94,73112.8,-5.43,-28.47,-28.59,0,*52
1517270822.02,18414,9.94,73126.3,-5.45,-28.63,-28.79,0,*57
1517270823.27,18415,9.94,73134.0,-5.43,-28.47,-28.63,0,*5D
1517270824.53,18416,9.94,73132.0,-5.43,-28.47,-28.63,0,*5E
1517270825.79,18417,9.94,73128.8,-5.43,-28.63,-28.79,0,*52
1517270827.04,18418,9.94,73154.5,-5.43,-28.59,-28.75,0,*58
1517270828.29,18419,9.94,73156.8,-5.43,-28.59,-28.79,0,*55
1517270829.55,18420,9.94,73146.0,-5.43,-28.43,-28.59,0,*56
1517270830.8,18421,9.94,73134.8,-5.43,-28.47,-28.75,0,*5D
1517270832.01,18422,9.94,73130.8,-5.43,-28.31,-28.31,0,*5F
1517270833.3,18423,9.94,73108.8,-5.41,-28.47,-28.63,0,*5A
1517270834.58,18424,9.94,73128.0,-5.41,-28.43,-28.59,0,*50
1517270835.87,18425,9.94,73116.0,-5.41,-28.43,-28.59,0,*51
1517270837.11,18426,9.94,73118.5,-5.41,-28.31,-28.31,0,*59
1517270838.4,18427,9.94,73102.0,-5.41,-28.25,-28.09,0,*56
1517270839.66,18428,9.94,73098.5,-5.39,-28.09,-27.99,0,*5E
1517270840.92,18429,9.94,73124.5,-5.39,-28.25,-28.25,0,*59
1517270842.16,18430,9.94,73124.5,-5.41,-28.31,-28.31,0,*5E
1517270843.37,18431,9.94,73168.0,-5.39,-28.37,-28.37,0,*50
1517270844.6,18432,9.94,73178.8,-5.35,-28.31,-28.05,0,*58
1517270845.83,18433,9.94,73168.3,-5.35,-28.15,-27.83,0,*5E
1517270847.09,18434,9.94,73180.0,-5.35,-28.21,-27.99,0,*55
1517270848.32,18435,9.94,73186.3,-5.35,-28.53,-28.47,0,*5D
1517270849.56,18436,9.94,73192.3,-5.35,-28.69,-28.63,0,*51
1517270850.76,18437,9.94,73198.8,-5.39,-28.69,-28.53,0,*5F
1517270851.99,18438,9.94,73194.5,-5.39,-28.75,-28.53,0,*5D
1517270853.2,18439,9.94,73188.0,-5.35,-28.53,-28.37,0,*56
1517270854.43,18440,9.94,73178.8,-5.35,-28.47,-28.31,0,*5B
1517270855.65,18441,9.94,73138.8,-5.35,-28.53,-28.31,0,*5F
1517270856.88,18442,9.94,73130.0,-5.39,-28.53,-28.43,0,*55
1517270858.12,18443,9.94,73106.8,-5.35,-28.37,-28.05,0,*58
1517270859.34,18444,9.94,73098.0,-5.35,-28.15,-27.83,0,*5E
1517270860.58,18445,9.94,73102.5,-5.35,-28.37,-28.05,0,*5E
1517270861.84,18446,9.94,73068.0,-5.33,-28.37,-28.05,0,*5B
1517270863.1,18447,9.94,73090.0,-5.35,-28.47,-28.05,0,*5B
1517270864.33,18448,9.94,73076.8,-5.35,-28.53,-28.21,0,*57
1517270865.57,18449,9.94,73080.5,-5.33,-28.53,-28.31,0,*51
1517270866.82,18450,9.94,73050.0,-5.33,-28.47,-27.93,0,*5B
1517270868.08,18451,10.0,73096.5,-5.33,-28.37,-28.21,0,*5B
1517270869.34,18452,9.94,73086.8,-5.33,-28.85,-28.47,0,*51
1517270870.57,18453,9.94,73100.8,-5.35,-28.97,-28.63,0,*53
1517270871.85,18454,9.94,73116.0,-5.33,-28.79,-28.47,0,*54
1517270873.06,18455,9.94,73104.8,-5.35,-28.85,-28.53,0,*55
1517270874.31,18456,9.94,73138.8,-5.35,-28.79,-28.47,0,*50
1517270875.57,18457,9.94,73148.0,-5.33,-28.85,-28.47,0,*54
1517270876.8,18458,9.94,73120.8,-5.35,-28.85,-28.47,0,*5D
1517270878.09,18459,9.94,73088.0,-5.33,-28.63,-28.05,0,*54
1517270879.32,18460,9.94,73108.8,-5.33,-28.69,-28.37,0,*55
1517270880.58,18461,9.94,73126.8,-5.33,-28.79,-28.31,0,*53
1517270881.83,18462,9.94,73134.3,-5.35,-28.79,-28.47,0,*57
1517270883.09,18463,9.94,73128.3,-5.35,-29.01,-28.63,0,*5E
1517270884.35,18464,9.94,73144.3,-5.33,-29.17,-28.69,0,*52
1517270885.58,18465,9.94,73146.0,-5.35,-29.17,-28.69,0,*55
1517270886.81,18466,9.94,73158.3,-5.35,-29.17,-28.69,0,*56
1517270888.04,18467,9.94,73164.8,-5.35,-29.17,-28.69,0,*57
1517270889.3,18468,9.94,73174.0,-5.39,-29.39,-28.75,0,*55
1517270890.53,18469,9.94,73188.0,-5.39,-29.29,-28.85,0,*5A
1517270891.82,18470,9.94,73194.8,-5.41,-29.13,-28.59,0,*55
1517270893.08,18471,9.94,73188.0,-5.41,-28.97,-28.43,0,*52
1517270894.34,18472,9.94,73168.5,-5.41,-28.79,-28.15,0,*52
1517270895.61,18473,9.94,73172.3,-5.41,-28.91,-28.31,0,*53
1517270896.87,18474,9.94,73178.0,-5.41,-28.97,-28.43,0,*57
1517270898.16,18475,9.94,73176.3,-5.41,-28.63,-28.05,0,*5F
1517270899.43,18476,9.94,73178.8,-5.41,-28.91,-28.15,0,*50
1517270900.69,18477,10.0,73164.5,-5.41,-28.97,-28.43,0,*54
1517270901.96,18478,9.94,73134.8,-5.41,-28.91,-28.37,0,*5E
1517270903.24,18479,9.94,73130.8,-5.41,-29.13,-28.47,0,*53
1517270904.5,18480,9.94,73144.5,-5.41,-29.23,-28.63,0,*50
1517270905.79,18481,9.94,73164.8,-5.41,-29.13,-28.43,0,*50
1517270907.05,18482,9.94,73176.0,-5.41,-28.79,-28.15,0,*5D
1517270908.33,18483,9.94,73162.8,-5.41,-28.91,-28.31,0,*5C
1517270909.59,18484,9.94,73166.3,-5.43,-28.79,-28.09,0,*54